Showing default

MAROC TUBSAT, 27004

Orbit data source: Space-Track

MAROC TUBSAT, 27004 is a payload satellite owned by CRTS (DE) in SSO that was launched on Mon, 10 Dec 2001 UTC via a ZENIT-2 launch vehicle from the Tyuratam Missile And Space Complex (TTMTR). Payloads include a variety of satellites, spacecraft, and rockets equipped with specific instruments for various scientific and technological missions. These include communications satellites like Starlink; space stations such as the ISS; scientific satellites like the Hubble; Earth observation satellites from companies like Planet Labs, Umbra, and HawkEye 360; GPS; miniature CubeSats for education and research; and military/defense satellites.

Loading next visibility...
MAROC TUBSAT details
Identifier
27004, 2001-056D
Orbit
SSO
Last TLE update6 hours ago
Origin
Flag of DECRTS (DE / GER)
ManufacturerTUB
MissionOperational Civil Imaging
Bus & MotorTUBSAT, Unknown motor
Mass45 kg wet, 45 kg dry
Launch date (UTC)
2001-12-10 (23 years ago)
Launch vehicle
ZENIT-2
Launch site
Tyuratam Missile And Space Complex (TTMTR)
Object type
Payload
Rocket body
Debris
Shape & HBRBox, 0.4 m
Radar Cross Section0.200 m², Medium (>0.1 m² and < 1m²)

Expand to show TLE details & history

TLE from 6 hours ago
0 MAROC TUBSAT
1 27004U 01056D   24361.44785535  .00000001  00000-0  53824-4 0  9999
2 27004  99.7544 158.3373 0020598  81.2059 340.5635 13.70228837152546
Epoch: 2024-12-26T10:44Z
Definitive object data (Epoch: 2024-12-26T10:44:54.702Z)
Latitude60.28427°
Longitude-115.75348°
Altitude994.604 km
Speed7.367 km/s
True Right ascension09h 23m 36s
True Declination60° 08' 27"
Sunlit
Object was in full shadow at TLE epoch
Visualization TLE readout
Latitude-25.07993°
Longitude77.34281°
Altitude1,016.629 km
Speed7.338 km/s
Apparent Right ascension00h 36m 35s
Apparent Declination-40° 13' 46"
Sunlit
Object is in daylight
Visualization observer readout
Local Sidereal Time16:04:24
Azimuth107.835° ESE
Elevation-50.831°
Doppler factor1
Orbital elements
Apogee altitude1,011.216 km
Perigee altitude980.837 km
Semi-major axis7,374.164 km
Eccentricity0.0020598
Inclination99.7544°
RAAN158.3373°
Arg. of periapsis81.2059°
True anomaly340.48477°
Mean anomaly340.5635°
Eccentric anomaly340.52415°
Mean motion3.42747 °/min
BSTAR0.000053824
Orbital period105.03 mins
Loading maneuver chart data...
Loading historical data...
Loading historical data...
Loading historical data...
Loading historical data...
Loading historical data...
Loading historical data...
Loading historical data...

MAROC TUBSAT Visibility forecast

Observer location: undefined°, undefined

Span
Click to sort rows by Start time (UTC) header in descending order
Start Az.
Max El. time (UTC)
Max El. Az.
Max El.
End time (UTC)
End Az.
11 mins2024-12-26 23:18:11.874Z22.649° NE2024-12-26 23:24:11.874Z119.776° SE41.149°2024-12-26 23:29:11.874Z181.452° SSW
7 mins2024-12-27 01:04:11.874Z332.73° NNW2024-12-27 01:07:11.874Z295.922° NW20.257°2024-12-27 01:11:11.874Z253.755° W
7 mins2024-12-27 09:24:11.874Z100.984° ESE2024-12-27 09:27:11.874Z61.857° ENE23.311°2024-12-27 09:31:11.874Z14.826° NNE
10 mins2024-12-27 11:06:11.874Z189.882° SSW2024-12-27 11:10:11.874Z251.407° W37.92°2024-12-27 11:16:11.874Z334.32° NNW
|